TimeCST,TemperatureF,Dew PointF,Humidity,Sea Level PressureIn,VisibilityMPH,Wind Direction,Wind SpeedMPH,Gust SpeedMPH,PrecipitationIn,Events,Conditions,WindDirDegrees,DateUTC
12:55 AM,50.0,41.0,71,30.23,10.0,Calm,Calm,-,N/A,,Overcast,0,2013-01-09 06:55:00
1:55 AM,51.8,42.8,71,30.24,10.0,Calm,Calm,-,N/A,,Overcast,0,2013-01-09 07:55:00
2:15 AM,51.8,42.8,71,30.24,10.0,Calm,Calm,-,N/A,,Overcast,0,2013-01-09 08:15:00
2:35 AM,50.0,44.6,82,30.24,10.0,Calm,Calm,-,N/A,,Overcast,0,2013-01-09 08:35:00
2:55 AM,50.0,48.2,94,30.24,6.0,Calm,Calm,-,N/A,,Overcast,0,2013-01-09 08:55:00
3:15 AM,48.2,48.2,100,30.25,6.0,Calm,Calm,-,N/A,,Overcast,0,2013-01-09 09:15:00
3:35 AM,48.2,48.2,100,30.26,2.5,Calm,Calm,-,N/A,,Overcast,0,2013-01-09 09:35:00
3:55 AM,48.2,48.2,100,30.25,2.0,Calm,Calm,-,N/A,,Overcast,0,2013-01-09 09:55:00
4:15 AM,51.8,50.0,94,30.25,3.0,ENE,3.5,-,N/A,,Overcast,70,2013-01-09 10:15:00
4:35 AM,50.0,50.0,100,30.25,3.0,Calm,Calm,-,N/A,,Mostly Cloudy,0,2013-01-09 10:35:00
4:55 AM,51.8,51.8,100,30.25,1.5,Calm,Calm,-,N/A,,Overcast,0,2013-01-09 10:55:00
5:55 AM,51.8,51.8,100,30.28,3.0,Calm,Calm,-,N/A,Rain,Light Rain,0,2013-01-09 11:55:00
6:55 AM,51.8,51.8,100,30.29,4.0,Calm,Calm,-,N/A,Rain,Light Rain,0,2013-01-09 12:55:00
7:55 AM,53.6,53.6,100,30.34,4.0,North,4.6,-,N/A,Rain,Light Rain,350,2013-01-09 13:55:00
8:55 AM,48.2,48.2,100,30.37,3.0,NNE,4.6,-,N/A,Rain,Light Rain,30,2013-01-09 14:55:00
9:55 AM,50.0,50.0,100,30.37,3.0,NE,4.6,-,N/A,Rain,Light Rain,40,2013-01-09 15:55:00
10:35 AM,51.8,51.8,100,30.35,1.5,ENE,5.8,-,N/A,Rain,Light Rain,60,2013-01-09 16:35:00
10:55 AM,51.8,51.8,100,30.35,1.5,East,5.8,-,N/A,Rain,Light Rain,80,2013-01-09 16:55:00
11:55 AM,51.8,51.8,100,30.33,10.0,ENE,4.6,-,N/A,,Overcast,60,2013-01-09 17:55:00
12:55 PM,53.6,53.6,100,30.30,10.0,NE,3.5,-,N/A,,Overcast,50,2013-01-09 18:55:00
1:55 PM,55.4,53.6,94,30.29,10.0,NNE,5.8,-,N/A,,Overcast,30,2013-01-09 19:55:00
2:55 PM,53.6,53.6,100,30.31,10.0,NE,4.6,-,N/A,,Overcast,50,2013-01-09 20:55:00
3:55 PM,53.6,53.6,100,30.29,10.0,ENE,5.8,-,N/A,,Overcast,70,2013-01-09 21:55:00
4:55 PM,53.6,51.8,94,30.31,10.0,ENE,6.9,-,N/A,,Overcast,60,2013-01-09 22:55:00
5:55 PM,53.6,53.6,100,30.32,10.0,NE,6.9,-,N/A,,Overcast,50,2013-01-09 23:55:00
6:55 PM,53.6,53.6,100,30.32,10.0,NE,5.8,-,N/A,,Overcast,50,2013-01-10 00:55:00
7:55 PM,53.6,53.6,100,30.32,10.0,ENE,8.1,-,N/A,,Overcast,70,2013-01-10 01:55:00
8:55 PM,53.6,53.6,100,30.31,7.0,ENE,6.9,-,N/A,,Overcast,60,2013-01-10 02:55:00
10:55 PM,53.6,53.6,100,30.32,4.0,ENE,8.1,-,N/A,Rain,Light Rain,70,2013-01-10 04:55:00
11:55 PM,53.6,53.6,100,30.28,10.0,ENE,10.4,-,N/A,Rain,Light Rain,60,2013-01-10 05:55:00